Lapse_Rate
6.4 6.4 6.4 6.4 6.2 6.0 6.0 5.9 6.0 5.9 5.7 5.4 5.7 5.5 5.4 5.4 5.2 4.9 5.0 4.9 5.2 4.8 5.1 5.3 5.4 5.4 5.5 5.4 5.2 5.3 5.4 5.5 5.7 5.6 5.7 5.6 5.7 5.7 5.6 5.7 5.7 5.6 5.6
6.2 6.3 6.5 6.5 6.4 6.1 6.0 5.9 5.9 5.9 5.9 5.6 5.5 5.5 5.5 5.9 5.3 5.1 5.2 5.3 5.2 5.2 5.2 5.3 5.4 5.4 5.5 5.5 5.5 5.2 5.3 5.4 5.5 5.6 5.6 5.5 5.6 5.7 5.6 5.5 5.4 5.4 5.4
6.1 6.3 6.4 6.5 6.6 6.5 6.1 5.9 5.9 5.8 5.7 5.6 5.5 5.3 5.2 5.3 5.3 5.7 5.6 5.4 5.5 5.4 5.6 5.7 5.5 5.4 5.5 5.5 5.5 5.5 5.4 5.5 5.4 5.5 5.5 5.4 5.5 5.6 5.8 5.5 5.5 5.6 5.6
6.3 6.3 6.4 6.4 6.5 6.5 6.2 5.7 5.7 5.7 5.7 5.2 5.3 5.2 5.2 5.3 5.4 5.4 5.7 5.7 5.7 5.7 5.8 6.0 4.7 5.3 5.6 5.5 5.2 5.4 5.5 5.6 5.6 5.6 5.5 5.6 5.6 5.8 6.0 6.1 5.9 5.7 5.5
6.4 6.3 6.3 6.4 6.4 6.3 6.4 5.9 5.7 5.7 5.6 5.4 5.3 5.3 5.3 5.4 5.3 5.4 5.7 5.8 5.6 5.8 5.8 5.9 5.7 5.5 5.1 5.3 5.2 5.3 5.2 5.2 5.4 5.6 5.8 5.6 5.5 5.6 5.9 6.1 6.2 6.0 5.7
6.3 6.4 6.3 6.2 6.3 6.3 6.3 6.2 5.9 5.7 5.7 5.5 5.5 5.4 5.4 5.5 5.6 5.6 5.6 5.7 5.9 5.8 5.7 5.8 5.7 5.2 5.2 5.2 5.4 5.4 5.7 5.5 5.5 5.6 5.6 5.8 5.8 5.6 5.8 5.7 5.7 5.7 5.6
6.3 6.3 6.2 6.1 6.2 6.1 6.1 6.0 6.0 5.9 5.8 5.8 5.7 5.7 5.6 5.6 5.7 5.6 5.7 5.8 5.8 5.8 5.7 5.8 5.9 5.3 5.3 5.5 5.2 5.3 5.6 5.6 5.4 5.3 5.2 5.3 5.4 5.5 5.6 5.6 5.6 5.6 5.6
6.2 6.3 6.2 6.2 6.2 6.2 6.2 6.1 6.0 5.9 5.9 5.9 5.8 5.6 5.6 5.6 5.6 5.7 5.6 5.7 5.8 5.7 5.7 5.6 5.7 5.8 5.6 5.3 5.3 5.1 5.3 5.6 5.5 5.5 5.5 5.4 5.5 5.8 5.7 5.5 5.5 5.5 5.5
6.3 6.2 6.2 6.2 6.2 6.1 6.0 6.1 6.0 5.8 5.6 5.6 5.7 5.7 5.6 5.7 5.6 5.6 5.7 5.7 5.6 5.6 5.7 5.8 5.6 5.5 5.5 5.3 5.2 5.1 5.1 5.2 5.3 5.4 5.2 5.1 5.3 5.5 5.6 5.8 5.8 5.6 5.5
6.5 6.4 6.3 6.3 6.2 6.1 6.1 6.1 5.9 5.8 5.6 5.6 5.8 5.8 5.7 5.6 5.5 5.5 5.6 5.6 5.6 5.6 5.6 5.7 5.8 5.7 5.7 5.6 5.5 5.3 5.3 5.4 5.3 5.3 5.2 4.9 4.8 4.9 5.1 5.2 5.4 5.6 5.5
6.6 6.5 6.1 6.0 6.2 6.2 6.0 6.0 5.9 5.9 6.0 5.8 5.7 5.8 5.8 5.7 5.7 5.6 5.5 5.6 5.6 5.7 5.7 5.7 5.8 5.8 5.7 5.7 5.6 5.4 5.3 5.3 5.2 5.3 5.5 5.2 4.9 4.9 5.0 5.1 5.4 5.6 5.7
6.6 6.5 6.1 5.9 5.9 6.2 6.3 5.9 5.8 6.0 6.0 5.9 5.9 5.8 6.0 5.9 5.7 5.6 5.6 5.5 5.6 5.6 5.6 5.7 5.7 5.7 5.7 5.7 5.7 5.6 5.5 5.4 5.5 5.6 5.2 5.3 5.3 5.4 5.5 5.7 5.7 5.7 5.6
6.5 6.5 6.4 6.2 6.3 6.3 5.9 5.7 5.8 6.0 5.8 5.8 5.8 5.8 5.7 5.9 5.8 5.7 5.7 5.6 5.6 5.6 5.6 5.5 5.5 5.6 5.5 5.5 5.5 5.4 5.4 5.5 5.4 5.5 5.4 5.2 5.3 5.5 5.5 5.5 5.5 5.5 5.5
6.5 6.1 5.9 5.6 5.6 5.9 5.5 5.5 5.6 5.7 5.8 5.8 5.8 5.8 5.8 5.7 5.8 5.7 5.6 5.5 5.6 5.5 5.5 5.5 5.5 5.4 5.4 5.4 5.4 5.4 5.4 5.4 5.3 5.2 5.3 5.5 5.5 5.3 5.4 5.5 5.5 5.5 5.3
6.0 6.1 6.0 6.0 5.7 5.3 5.5 5.5 5.5 5.9 5.8 6.0 5.8 5.7 5.8 5.8 5.7 5.5 5.4 5.4 5.3 5.5 5.5 5.5 5.5 5.4 5.4 5.5 5.5 5.4 5.4 5.2 5.1 5.1 5.2 5.3 5.3 5.3 5.2 5.2 5.2 5.3 5.3
5.4 5.9 6.0 5.8 5.8 5.6 5.7 5.5 5.6 6.0 5.8 6.0 6.0 5.8 5.8 5.8 5.6 5.6 5.5 5.5 5.5 5.4 5.5 5.5 5.5 5.5 5.4 5.4 5.4 5.3 5.3 5.1 5.0 5.0 5.1 5.0 4.8 4.9 4.9 5.0 5.0 5.0 4.9
5.9 5.1 6.1 5.6 5.6 5.5 5.5 5.5 5.4 5.6 5.5 5.8 5.5 5.4 5.5 5.7 5.6 5.6 5.5 5.4 5.5 5.6 5.5 5.4 5.4 5.3 5.3 5.3 5.3 5.3 5.3 5.2 5.0 4.9 4.7 4.7 4.7 4.7 4.7 4.7 4.6 4.6 4.7
6.4 5.9 6.1 5.5 5.7 5.0 5.2 5.3 5.3 5.5 5.7 5.6 5.4 5.5 5.5 5.4 5.4 5.4 5.6 5.6 5.4 5.5 5.4 5.3 5.2 5.2 5.3 5.3 5.3 5.2 5.0 5.1 5.0 5.0 4.9 4.9 4.8 4.7 4.7 4.7 4.7 4.8 4.8
6.2 5.7 6.0 5.7 5.5 5.9 5.5 5.6 5.5 5.4 5.4 5.5 5.5 5.4 5.4 5.4 5.1 5.1 5.5 5.5 5.4 5.3 5.4 5.3 5.2 5.2 5.4 5.2 5.2 5.2 5.2 5.0 5.0 4.9 4.8 4.7 4.8 4.8 4.9 4.8 4.9 4.9 4.8
5.7 5.8 6.0 6.0 5.4 5.3 5.8 5.7 5.5 5.4 5.3 5.5 5.5 5.6 5.5 5.6 5.5 5.2 5.3 5.3 5.6 5.4 5.3 5.3 5.2 5.4 5.3 5.3 5.3 5.1 5.0 4.9 4.9 4.8 4.9 4.8 4.8 4.9 4.9 4.8 4.7 4.8 4.9
6.2 6.0 5.8 5.5 5.5 5.5 5.4 5.6 5.5 5.5 5.3 5.5 5.5 5.3 5.4 5.5 5.4 5.3 5.4 5.3 5.4 5.3 5.4 5.2 5.3 5.3 5.5 5.4 5.3 5.2 5.2 5.0 4.9 4.8 4.9 4.9 5.1 5.0 4.9 4.9 4.8 4.9 4.9
6.0 6.1 6.1 5.9 5.7 5.8 5.5 5.6 5.6 5.6 5.7 5.7 5.5 5.5 5.5 5.5 5.6 5.4 5.4 5.3 5.4 5.5 5.2 5.5 5.4 5.6 5.4 5.2 5.3 5.3 5.2 5.1 5.2 5.0 5.0 5.0 4.9 4.9 5.0 5.1 4.9 4.9 4.9
6.1 6.1 5.8 6.2 6.2 6.0 5.6 5.7 5.8 5.6 5.6 5.6 5.5 5.6 5.5 5.4 5.4 5.5 5.6 5.6 5.5 5.4 5.3 5.3 5.4 5.4 5.4 5.2 5.1 5.2 4.9 5.2 5.2 5.2 5.1 5.0 4.9 5.0 5.0 4.9 4.8 4.9 4.7
6.2 5.9 6.1 6.2 5.9 5.9 5.6 5.7 5.5 5.7 5.7 5.7 5.5 5.4 5.5 5.3 5.4 5.2 5.3 5.1 5.1 5.1 5.1 5.0 5.2 5.1 5.0 5.0 5.1 5.0 5.1 5.3 5.3 5.0 4.9 5.1 4.9 4.8 4.8 4.8 4.7 4.7 4.7
5.7 5.8 5.7 6.0 5.9 5.9 5.8 5.8 5.7 5.7 5.8 5.7 5.9 5.7 5.6 5.8 5.5 5.0 5.1 5.0 5.0 4.9 4.9 4.8 4.3 4.5 4.9 4.8 4.9 5.1 5.2 5.2 5.1 5.1 5.0 5.0 4.9 4.8 4.7 4.7 4.7 4.6 4.5
5.9 5.8 5.6 5.5 5.5 5.6 5.6 5.8 5.9 6.1 6.1 6.2 6.1 5.8 5.6 5.4 5.1 4.8 4.8 5.0 4.9 4.7 4.6 3.9 3.7 4.3 4.5 4.5 4.9 5.0 4.9 5.0 5.0 5.1 5.0 5.0 4.9 4.7 4.6 4.6 4.5 4.4 4.5
Wind_Speed
14 14 14 12 14 15 15 16 17 17 17 17 17 17 17 17 14 10 10 23 29 19 6 13 17 18 19 20 20 20 21 21 21 21 22 22 24 21 19 19 16 16 15
16 16 15 14 15 15 16 17 16 16 16 16 18 19 16 16 13 13 12 14 23 28 15 10 17 19 20 18 20 22 24 24 25 26 28 29 29 28 27 27 27 26 26
19 17 15 15 15 16 19 17 17 17 16 16 17 16 17 16 16 17 14 14 16 23 29 7 20 22 20 20 23 27 31 31 30 30 29 28 28 26 26 27 26 26 25
19 18 15 15 19 18 17 16 15 10 9 8 8 13 14 15 15 18 18 16 18 18 26 31 24 21 27 31 32 33 32 31 30 29 29 28 27 26 26 24 22 23 24
19 18 17 18 21 18 16 15 11 12 10 10 10 12 13 14 15 17 17 18 20 19 18 29 36 31 30 32 34 31 30 28 27 27 26 24 24 25 25 23 22 21 22
19 18 18 20 20 16 12 13 12 12 10 11 11 10 11 14 15 15 15 17 18 19 17 20 22 29 26 28 28 27 26 25 24 24 23 22 22 21 21 21 20 20 19
20 19 19 19 18 11 11 15 12 14 10 11 8 8 8 12 13 14 15 15 17 16 17 18 17 17 21 25 24 23 22 22 21 20 20 19 19 19 19 19 19 17 18
21 20 19 17 17 11 13 14 14 10 8 5 5 6 3 2 6 9 12 12 13 13 16 17 17 18 18 19 25 22 20 19 18 19 18 18 18 18 18 18 18 20 20
21 20 21 18 17 16 11 13 13 11 8 4 6 0 4 3 4 4 7 8 10 11 12 14 15 16 17 17 18 20 20 18 17 18 16 16 16 16 17 17 18 19 19
20 20 21 20 19 16 12 11 14 8 9 8 4 2 2 5 4 4 3 4 7 8 11 11 12 14 14 15 18 18 18 18 16 16 15 14 14 15 15 15 17 17 18
19 18 19 19 18 16 16 15 11 9 7 7 4 3 3 4 4 3 4 4 4 5 7 9 9 10 12 14 13 14 13 14 14 15 14 14 14 14 14 13 15 15 16
10 18 18 17 16 14 16 16 15 10 7 6 4 4 4 3 4 3 3 6 5 3 4 5 7 8 9 11 14 15 15 15 13 13 13 13 13 12 13 13 13 13 13
7 11 18 16 15 16 17 16 14 8 7 6 6 5 3 3 4 5 7 5 4 3 2 4 4 5 6 8 10 12 14 14 13 13 13 12 12 13 12 13 12 12 12
9 14 16 15 18 19 16 15 10 6 6 3 6 5 4 3 4 4 5 7 4 3 3 4 3 4 5 7 8 10 12 12 12 12 12 12 12 12 12 12 11 11 12
5 10 11 10 13 15 16 16 6 6 6 3 4 5 4 4 4 3 5 7 7 5 4 5 4 5 6 6 5 7 10 10 11 11 11 11 12 11 11 11 11 11 10
12 9 9 8 8 7 11 11 6 9 7 4 3 7 5 3 4 3 4 4 3 4 4 3 3 9 8 7 5 7 9 10 10 10 11 11 10 11 11 11 10 9 9
11 11 9 9 7 5 7 6 6 7 7 7 7 8 6 7 4 4 3 3 4 4 7 3 4 11 9 8 7 7 7 7 9 9 9 10 10 9 9 9 8 8 8
11 10 11 9 12 15 11 5 8 5 7 8 8 7 8 5 7 4 3 5 4 4 4 11 9 7 7 9 8 8 7 6 8 8 9 9 7 7 7 7 8 7 7
10 11 10 11 11 12 12 10 8 7 6 6 6 7 6 8 7 6 4 4 4 4 7 8 8 7 8 10 8 7 7 7 8 7 6 6 6 6 6 6 6 6 6
11 10 9 10 10 10 10 10 11 8 5 6 5 5 6 5 7 8 5 6 6 6 8 9 8 9 7 9 8 6 5 6 5 4 3 2 3 3 5 5 5 6 6
8 9 10 9 9 8 8 12 11 11 9 8 5 6 7 8 8 5 4 6 7 6 7 8 8 8 7 8 8 5 5 5 4 2 2 1 1 1 1 2 4 6 6
9 9 9 10 10 6 19 22 17 10 9 9 9 6 9 11 11 9 9 8 5 4 7 8 8 9 10 8 6 6 6 6 3 3 2 2 2 2 1 3 7 7 4
10 10 9 10 9 9 22 21 21 10 10 9 10 8 7 9 13 10 13 11 11 6 4 4 7 8 9 8 8 7 6 4 3 4 3 3 2 3 3 5 5 3 4
10 9 9 9 10 9 23 23 21 14 10 9 10 9 8 7 10 11 8 7 7 8 7 8 9 9 10 12 9 6 6 4 3 2 1 2 1 3 4 6 1 3 1
9 9 10 11 11 11 24 25 19 10 10 9 9 11 11 9 15 15 8 7 7 8 13 14 15 15 15 12 11 9 4 3 2 2 1 2 1 4 6 5 2 1 4
7 8 9 10 14 12 25 26 19 8 9 7 6 10 16 14 17 15 8 9 8 7 8 12 14 13 11 10 7 3 4 2 2 2 2 2 2 3 3 2 4 5 8
Wind_Direction
140 128 124 130 129 130 122 115 110 103 93 86 78 70 62 59 57 56 40 34 42 47 97 131 125 119 113 108 102 96 89 88 84 80 76 75 71 69 71 65 63 61 57
137 132 137 135 129 126 122 117 113 106 99 88 79 73 68 64 57 57 43 34 40 38 27 141 130 119 109 106 102 97 92 88 86 83 79 74 70 66 65 61 56 54 54
143 145 141 136 131 127 121 115 110 104 97 93 88 77 64 62 54 54 44 45 44 39 35 106 125 110 106 106 101 98 90 85 82 78 74 69 67 65 63 59 57 54 52
155 149 143 137 135 134 131 128 126 116 106 98 89 75 69 59 53 55 50 45 41 30 37 37 116 104 106 104 97 90 86 83 80 76 72 68 64 63 61 59 58 58 53
159 151 145 142 143 141 139 134 127 121 114 103 92 77 63 56 50 56 50 47 42 40 30 44 51 86 93 94 93 89 84 80 78 76 72 70 65 61 57 53 51 55 56
160 152 146 148 147 145 141 137 129 120 116 114 99 77 60 55 49 51 46 44 42 44 44 44 56 54 69 82 87 88 84 81 78 75 71 67 64 62 59 55 51 51 53
160 156 153 153 155 152 148 140 130 128 121 127 110 88 65 55 48 45 44 40 38 38 47 52 54 54 53 63 79 82 84 80 76 75 75 73 68 65 62 61 57 56 54
164 161 159 160 160 150 150 150 149 139 128 169 138 123 123 79 48 38 44 42 41 40 45 44 53 54 60 61 59 65 75 81 79 79 78 74 72 68 64 62 60 58 55
171 168 166 164 162 162 162 163 162 159 147 172 183 166 153 155 130 37 48 46 46 47 47 47 49 50 52 61 60 59 64 72 76 78 79 78 75 71 67 65 67 62 57
176 175 173 169 169 169 168 171 171 163 161 154 150 63 17 122 157 148 83 62 57 54 49 45 47 53 59 67 74 71 76 75 77 74 74 72 71 69 67 67 66 58 58
177 177 176 174 173 173 172 172 173 174 171 163 153 147 111 107 102 147 150 148 104 66 62 54 52 49 49 53 67 69 82 83 74 73 72 70 68 69 69 67 63 62 53
170 181 176 174 169 169 174 176 176 177 165 152 151 155 168 170 159 147 121 150 136 92 76 72 70 63 59 67 65 69 77 84 83 79 73 69 70 70 71 69 66 56 51
173 181 180 184 180 179 177 174 176 167 160 162 166 160 161 135 134 123 125 136 146 148 129 79 75 81 84 89 80 85 74 83 84 82 79 78 77 75 72 67 61 56 51
173 173 183 184 181 176 173 167 160 135 143 137 168 163 157 150 156 166 151 147 128 138 165 136 118 105 101 98 95 97 86 84 86 84 84 86 81 75 71 66 64 55 47
134 141 151 159 165 171 166 153 145 143 143 141 154 162 172 154 157 152 158 172 147 158 172 179 155 153 130 122 99 103 98 92 90 87 89 89 85 80 74 68 60 53 46
123 118 109 100 112 148 147 149 137 146 142 142 148 168 165 154 149 158 164 158 154 138 136 150 159 154 145 130 113 117 103 102 94 95 95 88 83 78 73 64 55 49 43
141 145 142 123 133 72 98 121 131 143 146 151 161 169 162 152 154 161 160 152 136 124 128 118 134 153 150 146 139 129 122 115 102 99 97 91 84 75 64 54 46 39 36
156 150 142 171 161 150 141 158 139 154 144 152 146 162 154 150 146 152 164 158 151 137 129 145 152 159 154 153 144 136 125 115 111 101 99 88 74 62 50 40 35 30 25
141 141 145 149 165 151 147 146 136 151 154 136 144 152 153 157 151 145 151 155 140 136 136 146 145 157 147 156 147 141 136 132 114 110 94 74 60 52 46 38 34 25 16
145 141 152 150 152 150 139 137 130 135 144 124 117 125 132 164 152 149 147 162 155 143 135 140 144 154 156 166 167 158 153 164 152 160 124 69 51 57 40 34 23 5 356
134 139 141 140 145 146 149 142 142 142 134 112 91 106 119 128 127 143 154 148 158 148 144 142 142 150 157 167 175 170 168 155 155 190 226 218 278 262 27 14 346 344 337
134 135 142 146 140 138 165 154 146 139 140 140 132 122 117 125 125 130 120 118 108 153 150 155 157 159 165 168 160 171 163 172 181 191 263 236 266 256 279 328 337 324 309
141 142 146 143 139 142 161 156 149 136 137 139 136 128 118 114 108 110 98 101 108 102 112 127 152 156 159 165 158 162 171 178 166 143 253 252 244 266 268 307 321 294 109
147 146 143 143 139 154 160 152 145 135 132 134 136 135 137 125 123 124 118 106 103 97 112 131 136 136 143 150 155 159 156 135 128 161 238 268 212 290 306 310 272 186 106
145 146 147 144 145 152 162 157 143 141 137 137 132 140 129 133 151 145 127 113 104 95 96 104 110 118 124 130 135 136 146 161 188 192 176 278 338 310 303 285 236 270 283
144 139 141 148 151 152 166 160 150 146 144 134 126 136 144 146 152 154 135 136 126 132 123 118 114 116 124 126 115 123 164 202 197 225 139 278 312 338 306 255 270 261 289